Location: Chmeln�
(49.6483°N, 14.9871°E)
Time: 06:01:09
(UTC+00:00)

CZ-2C R/B - Pass Details

Date: 18 September 2020
Orbit: 785 x 870 km, 98.2° (Epoch: 27 October)

Event Time Altitude Azimuth Distance (km) Brightness Sun altitude
Rises 19:15:36 0° 12° (NNE) 3,407 6.1 -20.8°
Reaches altitude 10° 19:17:57 10° 9° (N) 2,480 5.4 -21.2°
Maximum altitude 19:23:25 66° 289° (WNW) 938 3.1 -21.9°
Drops below altitude 10° 19:28:56 10° 208° (SSW) 2,503 5.1 -22.7°
Sets 19:31:20 0° 206° (SSW) 3,441 5.8 -23.0°
